カタログに戻る

CZ-6A DEB

運用中SSO
NORAD 55872·DEBRIS·🇨🇳 China

打ち上げ Nov 11, 2022 から Taiyuan Satellite Launch Center

Loading…

次のパス (今後24時間)

TLE

最新Source: Space-Track

元期: Sep 14, 2026, 10:57 UTC

1 55872U 22151ZU  26257.45677350  .00000159  00000-0  11119-3 0  9998
2 55872  98.8394 257.9860 0041187  60.6748 299.8528 14.11408870185639

AllMySatでCZ-6A DEBをリアルタイム追跡

Download on the App Store